Location: Caltech
(34.1382°N, 118.1253°W)
Time: 02:50:03
(UTC-07:00)

Cosmos 1626 - Visible Passes

Search period start: 23 June 2018 00:00
Search period end: 03 July 2018 00:00
Orbit: 494 x 498 km, 82.5° (Epoch: 22 June)

Date Brightness Start Highest point End Pass type
(mag) Time Alt. Az. Time Alt. Az. Time Alt. Az.
23 Jun 3.4 22:40:50 34° NNE 22:40:50 34° NNE 22:43:09 10° NNE visible
24 Jun 3.4 22:19:34 29° NE 22:19:34 29° NE 22:21:53 10° NNE visible
24 Jun 5.2 23:54:09 10° WNW 23:54:09 10° WNW 23:54:18 10° WNW visible
25 Jun 3.7 21:58:16 22° ENE 21:58:16 22° ENE 22:00:28 10° NE visible
25 Jun 4.8 23:32:51 15° WNW 23:32:51 15° WNW 23:34:55 10° NW visible
26 Jun 4.0 21:36:55 16° ENE 21:36:55 16° ENE 21:38:47 10° NE visible
26 Jun 4.2 23:11:30 22° WNW 23:11:30 22° WNW 23:14:28 10° NNW visible
27 Jun 4.3 21:15:33 11° E 21:15:33 11° E 21:16:25 10° ENE visible
27 Jun 3.5 22:50:08 32° W 22:50:21 33° W 22:53:44 10° NNW visible
28 Jun 2.8 22:28:42 46° WSW 22:29:13 51° W 22:32:51 10° N visible
29 Jun 2.1 22:07:14 51° SSW 22:08:06 81° W 22:11:50 10° N visible
30 Jun 2.1 21:45:43 36° SSE 21:47:01 63° E 21:50:42 10° NNE visible
01 Jul 2.6 21:24:08 23° SSE 21:25:58 40° E 21:29:28 10° NNE visible
02 Jul 3.2 21:02:29 14° SE 21:04:55 26° E 21:08:04 10° NNE visible
02 Jul 5.0 22:38:14 10° WSW 22:40:14 14° WNW 22:42:13 10° NW visible
